TITAN 3C TRANSTAGE DEB, 28808

Orbit data source: Space-Track

TITAN 3C TRANSTAGE DEB, 28808 is space debris in HEO originally from a launch on Tue, 21 Dec 1965 UTC launched from the Air Force Eastern Test Range (AFETR). Debris objects in space refer to the collection of defunct objects orbiting the Earth. Examples of debris include non-operational satellites, rocket bodies, and fragments generated from explosions, collisions, or faulty payload assembly.

Loading next visibility...
Identifier
28808, 1965-108CA
Orbit
HEO
Country
Flag of USUS
Related business
Manufacturer
Unknown
Mission
Spacecraft
Bus & Motor
Unknown
Mass
Unknown
Launch date (UTC)
1965-12-21 (60 years ago)
Launch vehicle
Unknown
Launch site
Air Force Eastern Test Range (AFETR)
Object type
Payload
Rocket body
Debris
Shape & HBR
Unknown shape, 0.1 m
Radar Cross Section
Small (<0.1 m²)

Expand to show TLE details & history
Last TLE update: 9 months ago

TLE from 9 months ago
0 TITAN 3C TRANSTAGE DEB
1 28808U 65108CA  25218.45519875  .00003872  00000-0  10825-2 0  9996
2 28808  27.9900 347.3504 5847207 231.6751  59.8857  4.24842145328952
Epoch: 2025-08-06T10:55Z
TLE epoch observation values (Epoch: 2025-08-06T10:55:29.172Z)
Latitude
0.00001°
Longitude
-131.7556°
Altitude
10,260.866 km
Speed
4.813 km/s
True Right ascension
23h 09m 23s
True Declination
0° 00' 00"
Sunlit
Object was in daylight at epoch
Visualization orbit readout
Latitude
Unknown
Longitude
Unknown
Altitude
Unknown
Speed
Unknown
Apparent Right ascension
Unknown
Apparent Declination
Unknown
Sunlit
N/A
Visualization observer readout
Local Sidereal Time
12:27:04
Azimuth
Unknown
Elevation
Unknown
Doppler factor
Unknown
Orbital elements
Apogee altitude
19,146.66 km
Perigee altitude
310.688 km
Semi-major axis
16,106.811 km
Eccentricity
0.58472
Inclination
27.99°
RAAN
347.3504°
Arg. of periapsis
231.6751°
True anomaly
128.44068°
Mean anomaly
59.8857°
Eccentric anomaly
93.33112°
Mean motion
1.06177 °/min
Orbital period
339.06 mins
BSTAR
0.0010825
Loading maneuver chart data...
Computing Atmospheric mass density...

Documentation

Showing up to 5 results
|